Terminal Aerodrome Forecast
Issued by NWS Twin Cities, MN

Home | Current Version | Previous Version | Text Only | Print | Product List | Glossary Off
Versions: 1 2 3 4 5 6 7 8 9 10 11 12 13 14

000
FTUS43 KMPX 260900 AAA
TAFSTC
TAF AMD
KSTC 260907Z 2609/2706 30009KT P6SM BKN040
      TEMPO 2609/2612 BKN030
     FM261200 31007KT P6SM SCT250
     FM270100 28003KT P6SM BKN100=

USA.gov is the U.S. government's official web portal to all federal, state and local government web resources and services.